www.pogodaiklimat.ru

Погода и климат >> Архив погоды >> Россия >> Приморский край >> Владивосток


АРХИВ ПОГОДЫ в Владивостоке

Время (UTC), дата Ветер
(напр.,м/с)
 
Видим.   Явления Облачность Т
(С)
Тd
(С)
f
(%)
Тe
(С)
Тes
(С)
Комфортность P
(гПа)
Po
(гПа)
Тmin
(С)
Tmax
(С)
R
(мм)
R24
(мм)
S
(см)
06 19.09 СЗ 3 50 км 6/3 600 м
[Sc Ac lent]
+21.3 +9.4 47 +23 +25 комфорт 1013.1 991.3
09 19.09 СЗ 2 50 км 6/4 600 м
[Sc Ac lent Cc]
+18.5 +12.0 66 +20 +20 тепло 1013.4 991.5 +21.6
12 19.09 ЮЗ 3 50 км 4/4 600 м
[Sc]
+17.5 +14.7 84 +18 +18 тепло 1014.2 992.2
15 19.09 С 1 50 км ясно +17.6 +11.8 69 +19 +19 тепло 1014.6 992.5
18 19.09 Ю 1 50 км ясно +14.0 +10.6 80 +14 +14 тепло 1014.7 992.4
21 19.09 С 2 50 км 8/8 600 м
[Sc]
+13.4 +6.8 64 +13 +13 по сезону 1015.2 992.8 +12.1
00 20.09 С 3 50 км 3/3 600 м
[Cu hum]
+14.9 +9.9 72 +14 +17 тепло 1016.2 993.9 +12.0
03 20.09 СЗ 2 50 км 3/3 600 м
[Sc Ac lent]
+20.5 +8.8 47 +22 +30 комфорт 1015.6 993.7
06 20.09 СЗ 2 50 км 4/1 600 м
[Sc Ac cast]
+21.6 +6.5 38 +22 +27 комфорт 1014.5 992.8
09 20.09 ЮЗ 2 50 км 1/0
[Ac cast]
+19.6 +7.8 46 +21 +21 комфорт 1014.6 992.7 +21.9
12 20.09 СЗ 2 50 км ясно +17.5 +11.5 68 +18 +18 тепло 1015.7 993.6
15 20.09 Ю 1 50 км ясно +15.7 +13.0 84 +16 +16 тепло 1015.9 993.7
18 20.09 ЮВ 1 50 км ясно +13.1 +9.6 79 +13 +13 по сезону 1015.8 993.4
21 20.09 ЮВ 3 50 км ясно +13.5 +10.2 80 +12 +12 по сезону 1015.8 993.4 +12.9
00 21.09 Ю 5 50 км 3/0
[Cc]
+18.2 +9.5 57 +18 +21 тепло 1015.2 993.2
03 21.09 ЮВ 12-16
{18}
50 км 6/3 600 м
[Sc Ci fib]
+20.0 +8.6 48 +20 +20 тепло 1014.4 992.5
06 21.09 ЮВ 12-15
{19}
50 км 8/3 600 м
[Sc Ci fib]
+19.4 +13.3 68 +20 +20 тепло 1012.9 991.1
09 21.09 ЮВ 12-17
{18}
50 км 8/3 600 м
[Sc Ac lent]
+17.0 +11.6 70 +15 +15 по сезону 1011.6 989.6 +20.6
12 21.09 ЮВ 11-17
{18}
50 км 8/0
[Ac lent]
+16.3 +11.5 73 +14 +14 по сезону 1011.4 989.3
15 21.09 ЮВ 12-15
{18}
50 км 10/0
[Ac lent]
+15.8 +11.4 75 +13 +13 по сезону 1010.3 988.2
18 21.09 ЮВ 8-11
{17}
10 км слабый дождь 10/0
[As op]
+15.3 +10.9 75 +13 +13 по сезону 1009.9 987.8
21 21.09 ЮВ 13-18
{18}
20 км {дождь} 10/0 600 м
[As op]
+14.8 +11.0 78 +12 +12 по сезону 1009.0 986.8 +14.1 0.9
00 22.09 ЮВ 6-11
{18}
20 км слабый дождь 10/0
[As op]
+14.8 +13.2 90 +13 +13 по сезону 1011.0 988.8
03 22.09 ЮВ 7-11
{12}
50 км {дождь} 9/0
[As op]
+16.7 +14.6 87 +15 +16 по сезону 1010.7 988.7
06 22.09 ЮВ 9-12
{13}
50 км {дождь} 9/9 600 м
[Sc]
+17.8 +14.9 83 +17 +17 по сезону 1009.8 987.9
09 22.09 ЮВ 6
{12}
50 км 6/5 600 м
[Sc Cc]
+16.3 +13.3 82 +15 +15 по сезону 1010.9 988.8 +19.0 3
12 22.09 Ю 2 50 км 10/10 600 м
[Sc]
+16.3 +15.3 94 +16 +16 тепло 1013.2 991.1
15 22.09 С 3 50 км {дождь} 9/9 600 м
[Sc]
+15.5 +15.0 97 +15 +15 тепло 1013.9 991.7
18 22.09 С 4 50 км {дождь} 8/0
[Ac cast]
+13.4 +11.5 88 +12 +12 по сезону 1014.6 992.2
21 22.09 С 2 50 км 4/0
[Ac lent]
+11.9 +10.7 92 +11 +11 по сезону 1015.1 992.6 +11.9 0.3
00 23.09 Ю 1 50 км 6/0
[Ac cast]
+15.8 +12.0 78 +17 +20 тепло 1014.7 992.5 +11.4
03 23.09 Ю 6 50 км 9/6 600 м
[Sc Ac trans Cc]
+17.8 +14.1 79 +17 +18 тепло 1013.8 991.8
06 23.09 ЮВ 9-12
{13}
50 км слабый дождь 10/10 600 м
[Sc]
+16.4 +14.8 90 +15 +15 по сезону 1011.2 989.2
09 23.09 С 4
{17}
20 км гроза, ливневой дождь 9/9 600 м
[Cb cap]
+11.8 +11.3 97 +9 +9 холодно 1011.5 989.0 +17.8 12
12 23.09 ЮВ 2 10 км слабый дождь {гроза, ливн. осадки} 10/10 600 м
[Sc]
+13.0 +10.5 85 +12 +12 по сезону 1012.2 989.8
15 23.09 С 4 20 км {дождь} 10/10 600 м
[Sc]
+11.8 +11.4 97 +9 +9 прохладно 1012.4 990.0
18 23.09 С 5 20 км {дождь} 6/6 600 м
[Sc]
+10.5 +9.3 92 +7 +7 прохладно 1012.7 990.1
21 23.09 СЗ 3 50 км 6/4 600 м
[Sc Ac cast]
+10.3 +8.9 91 +8 +8 прохладно 1013.7 991.1 +9.9 8
00 24.09 СЗ 4 50 км 3/1 600 м
[Sc Ac lent]
+11.6 +7.2 74 +9 +12 по сезону 1014.7 992.1
03 24.09 СЗ 4 50 км 8/6 600 м
[Sc Cc]
+13.1 +6.9 66 +12 +14 по сезону 1015.4 992.9
06 24.09 С 3 50 км {ливн. осадки} 8/8 1000 м
[Sc diur, vesp]
+14.3 +6.7 60 +13 +14 прохладно 1014.9 992.5
09 24.09 З 2 50 км 3/3 1000 м
[Sc diur, vesp]
+14.3 +5.2 54 +14 +14 по сезону 1016.0 993.6 +15.7 0.0
12 24.09 СЗ 5
{10}
50 км ясно +13.3 +5.9 61 +11 +11 по сезону 1017.8 995.3
15 24.09 СЗ 4 50 км ясно +11.4 +6.1 70 +9 +9 прохладно 1019.2 996.5
18 24.09 С 4 50 км ясно +10.7 +6.3 74 +8 +8 прохладно 1019.9 997.2
21 24.09 С 3 50 км 1/1 600 м
[Sc]
+8.9 +5.6 80 +6 +6 прохладно 1020.4 997.5 +8.9
00 25.09 СЗ 2 50 км 1/1 1000 м
[Sc]
+11.5 +6.4 71 +10 +15 по сезону 1021.4 998.7
03 25.09 С 3 50 км 3/3 1000 м
[Sc]
+15.7 +6.3 54 +15 +21 тепло 1020.5 998.1
06 25.09 СЗ 3 50 км 3/3 600 м
[Sc]
+17.3 +7.1 51 +17 +21 тепло 1019.2 997.0
09 25.09 З 3 50 км 3/3 600 м
[Sc]
+15.1 +7.7 61 +14 +14 по сезону 1020.1 997.7 +17.5
12 25.09 З 3 50 км 6/6 600 м
[Sc]
+14.7 +10.3 75 +14 +14 тепло 1021.8 999.3
15 25.09 СЗ 2 50 км ясно +12.6 +11.5 93 +12 +12 по сезону 1022.4 999.8
18 25.09 С 3 50 км ясно +11.5 +9.9 90 +10 +10 по сезону 1022.4 999.7
21 25.09 З 1 50 км ясно +10.3 +9.0 92 +10 +10 по сезону 1023.2 1000.4 +10.3
00 26.09 СЗ 1 50 км ясно +13.7 +8.8 72 +14 +19 тепло 1023.8 1001.2

 

Местоположение метеостанции Владивосток (Приморский край, Россия): широта 43.12 долгота 131.90 высота над уровнем моря 188 м.

В архиве по умолчанию представлена погода в Владивостоке за последнюю неделю. Архивные данные за месяц целиком и за предыдущие месяцы, начиная с января 2011 года, Вы можете получить, выбрав интересующий диапазон дат из раскрывающегося списка и нажав кнопку "Ввод!".


*Определитесь, кто Вы:
робот инопланетянин человек

Внимание! Время в таблицах - всемирное. Для получения местного времени необходимо прибавить поправку, которая в Владивостоке равна 10 ч.

Смотрите также архив погоды в соседних городах и на ближайших метеорологических станциях:

Погода на Мысе Назимова (Приморский край, Россия) (8 км)
Погода в Барабаше (Приморский край, Россия) (42 км)
Погода в Многоудобном (Приморский край, Россия) (60 км)
Погода в Находке (Приморский край, Россия) (81 км)
Погода в Гамове (Приморский край, Россия) (84 км)
Погода в Тимирязевском (Приморский край, Россия) (85 км)
Погода в Партизанске (Приморский край, Россия) (89 км)
Погода в Посьете (Приморский край, Россия) (104 км)
Погода в Полтавке (Приморский край, Россия) (112 км)
Погода в Анучино (Приморский край, Россия) (130 км)

Пояснения к столбцам:

Ветер - указаны скорость ветра в м/с - средняя за 10 мин, порывы в срок и между сроками (в фигурных скобках) и направление, откуда дует ветер: С - северный, СВ - северо-восточный, В - восточный, ЮВ - юго-восточный, Ю - южный, ЮЗ - юго-западный, З - западный, СЗ - северо-западный.
Видимость - горизонтальная дальность видимости в метрах или километрах. При видимости от 1 до 10 км при отсутствии осадков обычно наблюдается дымка, при ухудшении видимости до 1 км и менее - туман. В сухую погоду видимость может ухудшаться дымом, пылью или мглою.
Явления - указаны атмосферные явления, наблюдавшиеся в срок или в последний час перед сроком; фигурными скобками обозначены явления, наблюдавшиеся между сроками (за 1-3 часа до срока); квадратными скобками обозначены град или гололедные отложения с указанием их диаметра в мм.
Облачность - указаны через наклонную черту общая и нижняя облачность в баллах и высота нижней границы облаков в метрах; квадратными скобками обозначены формы облаков: Ci - перистые, Cs - перисто-слоистые, Cc - перисто-кучевые, Ac - высококучевые, As - высокослоистые, Sc - слоисто-кучевые, Ns - слоисто-дождевые, Cu - кучевые, Cb - кучево-дождевые. Подробнее классификацию облаков см. в Атласе облаков (PDF).
T - Температура воздуха - температура, измеренная на высоте 2 м над землей.
Td - Температура точки росы - температура, при понижении до которой содержащийся в воздухе водяной пар достигнет насыщения.
f - Относительная влажность воздуха - влажноcть воздуха, измеренная на высоте 2 м над землей.
Te - Эффективная температура - температура, которую ощущает одетый по сезону человек в тени. Характеристика душности погоды. При расчете учитывается влияние влажности воздуха и скорости ветра на теплоощущения человека.
Tes - Эффективная температура на солнце - температура, которую ощущает человек, с поправкой на солнечный нагрев. Характеристика знойности погоды. Зависит от высоты солнца над горизонтом, облачности и скорости ветра. Ночью, в пасмурную погоду, а также при ветре 12 м/с и более поправка равна нулю.
P - Атмосферное давление - приведенное к уровню моря атмосферное давление.
Po - Атмосферное давление - измеренное на уровне метеостанции атмосферное давление.
Tmin - Минимальная температура - минимум температуры воздуха на высоте 2 м над землей.
Tmax - Максимальная температура - максимум температуры воздуха на высоте 2 м над землей.
R - Количество осадков - Количество выпавших осадков за период времени, мм. При наведении курсора мыши на число - период времени, за который выпало указанное количество осадков.
R24 - Количество осадков - Количество выпавших осадков за 24 часа, мм.
S - Снежный покров - Высота снежного покрова, см. При наведении курсора мыши на число - состояние снежного покрова и степень покрытия местности в баллах.